Regional Weather Roundup
Issued by NWS Bismarck, ND

Home | Current Version | Previous Version | Text Only | Print | Product List | Glossary On
Versions: 1 2 3 4 5 6 7 8 9 10 11 12 13 14 15 16 17 18 19 20 21 22 23 24 25 26 27 28 29 30 31 32 33 34 35 36 37 38 39 40 41 42 43 44 45 46 47 48 49 50
000
ASUS43 KBIS 230910
RWRBIS

NWR BROADCAST TEXT
NATIONAL WEATHER SERVICE BISMARCK ND
400 AM CDT WED JUL 23 2014

NOTE: "FAIR" INDICATES FEW OR NO CLOUDS BELOW 12,000 FEET WITH NO
SIGNIFICANT WEATHER AND/OR OBSTRUCTIONS TO VISIBILITY.


CITY           SKY/WX    TMP DP  RH WIND       PRES   REMARKS
WILLISTON      CLEAR     67  62  84 SE3       30.22F
MINOT          CLOUDY    65  63  93 CALM      30.25F
MINOT AFB      CLOUDY    65  64  99 E5        30.25F
BISMARCK       MOCLDY    65  62  90 E5        30.25S
DICKINSON      PTCLDY    61  58  90 E5        30.23F
GARRISON         N/A     66  64  93 N6        30.28R
HETTINGER ARPT CLEAR     61  58  90 E5        30.25R
JAMESTOWN      PTCLDY    61  57  87 SE3       30.26F
CARRINGTON     FAIR      61  61 100 SE7       30.28S
CROSBY           N/A     63  63 100 E5        30.26S
HARVEY         FAIR      59  59 100 CALM      30.27R
HAZEN          PTSUNNY   64  63  94 NE3       30.25S
MANDAN         PTSUNNY   64  61  88 E5        30.26S
RUGBY          FAIR      61  59  94 E12       30.28S
STANLEY        FAIR      63  63 100 E6        30.26F
TIOGA          FAIR      63  63 100 E7        30.28S
WATFORD CITY   FAIR      64  63  94 E8        30.22S
$$

CITY           SKY/WX    TMP DP  RH WIND       PRES   REMARKS
GRAND FORKS    MOCLDY    59  57  93 N7        30.26S
GRAND FORKS AF PTCLDY    59  59  99 N7        30.27F
DEVILS LAKE    PTCLDY    63  55  77 NE6       30.28R
FARGO          PTCLDY    58  55  90 CALM      30.25S
CANDO          CLOUDY    61  55  82 E7        30.30S
CAVALIER       FAIR      59  55  88 N3        30.29F
GRAFTON        FAIR      57  57 100 N7        30.28S
GWINNER        SUNNY     61  61 100 CALM      30.27F
LANGDON        PTSUNNY   55  54  94 NE5       30.31S
ROLLA          PTSUNNY   55  55 100 NE5       30.32F
WALHALLA       CLOUDY    55  55 100 NW3         N/A
$$

CITY           SKY/WX    TMP DP  RH WIND       PRES   REMARKS
ABERDEEN       CLEAR     59  57  93 CALM      30.26R
MOBRIDGE       PTCLDY    66  60  81 E8        30.21F
BUFFALO          N/A     61  58  90 E9        30.16F
RAPID CITY     CLOUDY    64  56  75 SW16      30.26R THUNDER
GLASGOW        PTCLDY    64  57  78 E10       30.18F
SIDNEY         CLEAR     61  57  88 CALM      30.24S
WOLF POINT     PTCLDY    63  58  83 E6        30.21F
GLENDIVE       CLEAR     63  61  94 NE7       30.23F
MILES CITY     CLEAR     63  60  90 NE5       30.20S
BAKER          CLEAR     60  58  92 E8        30.24R
$$

CITY           SKY/WX    TMP DP  RH WIND       PRES   REMARKS
BILLINGS       CLEAR     62  57  83 NW6       30.20F
GREAT FALLS    PTCLDY    63  56  78 N6        30.13F
REGINA         PTCLDY    63  54  72 E13       30.26F
ESTEVAN        CLOUDY    61  57  88 E10       30.27F
$$



USA.gov is the U.S. government's official web portal to all federal, state and local government web resources and services.